Schneifelwetter: Wetterstation Hallschlag, 537 m . NN
Wetterdaten: Samstag, 13.03.2010
Datum Zeit Temp. A. Feuchte A. Luftdruck Regen Wind Richtung Richtung Sonnenschein Helligkeit T Regen Taupunkt Windchill
13.03.2010 00:10 -1,2 C 89 % 1019 hPa 0,0 l/m 0,0 km/h (0 Bft) W-SW 245 0 min 0 lux 0,00 min -2,8 C -1,2 C
13.03.2010 00:25 -1,2 C 90 % 1019 hPa 0,0 l/m 0,0 km/h (0 Bft) W-SW 245 0 min 0 lux 0,00 min -2,6 C -1,2 C
13.03.2010 00:40 -1,2 C 90 % 1019 hPa 0,0 l/m 3,6 km/h (1 Bft) W-SW 245 0 min 0 lux 0,00 min -2,6 C -1,2 C
13.03.2010 00:55 -1,2 C 90 % 1019 hPa 0,0 l/m 5,0 km/h (1 Bft) W-SW 245 0 min 0 lux 0,00 min -2,6 C -1,2 C
13.03.2010 01:10 -1,0 C 90 % 1019 hPa 0,0 l/m 12,9 km/h (3 Bft) W-SW 250 0 min 0 lux 0,00 min -2,4 C -6,8 C
13.03.2010 01:25 -1,0 C 90 % 1019 hPa 0,0 l/m 12,3 km/h (3 Bft) W-SW22.5 245 0 min 0 lux 0,00 min -2,4 C -6,4 C
13.03.2010 01:40 -0,9 C 90 % 1019 hPa 0,0 l/m 12,2 km/h (2 Bft) SW22.5 235 0 min 0 lux 0,00 min -2,3 C -6,2 C
13.03.2010 01:55 -0,9 C 90 % 1019 hPa 0,0 l/m 12,2 km/h (2 Bft) W-SW22.5 255 0 min 0 lux 0,00 min -2,3 C -6,2 C
13.03.2010 02:10 -1,0 C 89 % 1019 hPa 0,0 l/m 15,2 km/h (3 Bft) W-SW22.5 250 0 min 0 lux 0,00 min -2,6 C -8,3 C
13.03.2010 02:25 -1,2 C 89 % 1019 hPa 0,0 l/m 13,0 km/h (3 Bft) W-SW22.5 255 0 min 0 lux 0,00 min -2,8 C -7,1 C
13.03.2010 02:40 -1,3 C 89 % 1019 hPa 0,0 l/m 12,3 km/h (3 Bft) W 260 0 min 0 lux 0,00 min -2,9 C -6,7 C
13.03.2010 02:55 -1,5 C 89 % 1019 hPa 0,0 l/m 8,6 km/h (2 Bft) W-SW 255 0 min 0 lux 0,00 min -3,1 C -3,8 C
13.03.2010 03:10 -1,8 C 89 % 1019 hPa 0,0 l/m 11,8 km/h (2 Bft) W 260 0 min 0 lux 0,00 min -3,4 C -6,9 C
13.03.2010 03:25 -1,9 C 89 % 1019 hPa 0,0 l/m 11,4 km/h (2 Bft) W22.5 265 0 min 0 lux 0,00 min -3,5 C -6,7 C
13.03.2010 03:40 -2,0 C 89 % 1019 hPa 0,0 l/m 10,6 km/h (2 Bft) W-SW22.5 250 0 min 0 lux 0,00 min -3,6 C -6,2 C
13.03.2010 03:55 -1,9 C 90 % 1019 hPa 0,0 l/m 12,2 km/h (2 Bft) W22.5 265 0 min 0 lux 0,00 min -3,3 C -7,3 C
13.03.2010 04:10 -2,0 C 91 % 1019 hPa 0,0 l/m 11,8 km/h (2 Bft) W22.5 260 0 min 0 lux 0,00 min -3,3 C -7,1 C
13.03.2010 04:25 -1,9 C 91 % 1019 hPa 0,0 l/m 7,2 km/h (2 Bft) W 270 0 min 0 lux 0,00 min -3,2 C -2,8 C
13.03.2010 04:40 -1,8 C 91 % 1019 hPa 0,0 l/m 7,2 km/h (2 Bft) W 265 0 min 0 lux 0,00 min -3,1 C -2,7 C
13.03.2010 04:55 -1,6 C 91 % 1019 hPa 0,0 l/m 6,3 km/h (2 Bft) W 265 0 min 0 lux 0,00 min -2,9 C -1,6 C
13.03.2010 05:10 -1,4 C 91 % 1019 hPa 0,0 l/m 6,6 km/h (2 Bft) W 265 0 min 0 lux 0,00 min -2,7 C -1,6 C
13.03.2010 05:25 -1,3 C 92 % 1020 hPa 0,0 l/m 7,6 km/h (2 Bft) W22.5 275 0 min 0 lux 0,00 min -2,4 C -2,6 C
13.03.2010 05:40 -0,9 C 93 % 1020 hPa 0,0 l/m 19,6 km/h (3 Bft) W22.5 265 0 min 0 lux 0,00 min -1,9 C -10,6 C
13.03.2010 05:55 -0,7 C 93 % 1020 hPa 0,0 l/m 13,8 km/h (3 Bft) W22.5 260 0 min 0 lux 0,00 min -1,7 C -7,1 C
13.03.2010 06:10 -0,6 C 93 % 1020 hPa 0,0 l/m 16,4 km/h (3 Bft) W22.5 270 0 min 0 lux 0,00 min -1,6 C -8,5 C
13.03.2010 06:25 -0,6 C 93 % 1020 hPa 0,0 l/m 11,8 km/h (2 Bft) W 270 0 min 0 lux 0,00 min -1,6 C -5,5 C
13.03.2010 06:40 -0,6 C 93 % 1020 hPa 0,0 l/m 8,7 km/h (2 Bft) W 265 0 min 96 lux 0,00 min -1,6 C -3,0 C
13.03.2010 06:55 -0,6 C 93 % 1020 hPa 0,0 l/m 6,2 km/h (2 Bft) W 265 0 min 388 lux 0,00 min -1,6 C -0,6 C
13.03.2010 07:10 -0,6 C 94 % 1020 hPa 0,0 l/m 4,6 km/h (1 Bft) W 265 0 min 663 lux 0,00 min -1,4 C -0,6 C
13.03.2010 07:25 -0,6 C 94 % 1020 hPa 0,0 l/m 9,6 km/h (2 Bft) W 270 0 min 1,55 klux 0,00 min -1,4 C -3,8 C
13.03.2010 07:40 -0,5 C 94 % 1020 hPa 0,0 l/m 6,7 km/h (2 Bft) W 270 0 min 4,48 klux 0,00 min -1,3 C -0,8 C
13.03.2010 07:55 0,0 C 94 % 1020 hPa 0,0 l/m 9,3 km/h (2 Bft) W 270 0 min 8,33 klux 0,00 min -0,8 C -2,9 C
13.03.2010 08:10 0,1 C 94 % 1021 hPa 0,0 l/m 10,7 km/h (2 Bft) W-NW45 290 0 min 5,57 klux 0,00 min -0,7 C -3,9 C
13.03.2010 08:25 0,3 C 93 % 1021 hPa 0,0 l/m 3,0 km/h (1 Bft) W22.5 280 0 min 9,2 klux 0,00 min -0,7 C 0,3 C
13.03.2010 08:40 0,6 C 92 % 1021 hPa 0,0 l/m 9,4 km/h (2 Bft) W-NW45 285 0 min 10,2 klux 0,00 min -0,5 C -2,3 C
13.03.2010 08:55 0,8 C 92 % 1021 hPa 0,0 l/m 12,5 km/h (3 Bft) NW45 320 0 min 16,3 klux 0,00 min -0,3 C -4,4 C
13.03.2010 09:10 1,4 C 91 % 1021 hPa 0,0 l/m 12,4 km/h (3 Bft) N-NW45 330 15 min 27,4 klux 0,00 min 0,1 C -3,7 C
13.03.2010 09:25 1,6 C 89 % 1021 hPa 0,0 l/m 9,6 km/h (2 Bft) NW45 310 0 min 22,4 klux 0,00 min -0,0 C -1,4 C
13.03.2010 09:40 1,6 C 88 % 1021 hPa 0,0 l/m 14,3 km/h (3 Bft) N-NW22.5 340 0 min 18,5 klux 0,00 min -0,2 C -4,6 C
13.03.2010 09:55 1,2 C 88 % 1022 hPa 0,0 l/m 10,0 km/h (2 Bft) W-NW45 290 0 min 11,5 klux 0,00 min -0,6 C -2,1 C
13.03.2010 10:10 1,3 C 88 % 1022 hPa 0,0 l/m 14,1 km/h (3 Bft) NW45 305 0 min 19,7 klux 0,00 min -0,5 C -4,9 C
13.03.2010 10:24 1,4 C 87 % 1022 hPa 0,0 l/m 16,3 km/h (3 Bft) W45 270 0 min 22,2 klux 0,00 min -0,5 C -6,0 C
13.03.2010 10:39 1,5 C 87 % 1022 hPa 0,0 l/m 11,3 km/h (2 Bft) NW22.5 305 0 min 17,1 klux 0,00 min -0,4 C -2,8 C
13.03.2010 10:54 1,6 C 86 % 1022 hPa 0,0 l/m 8,9 km/h (2 Bft) W22.5 260 0 min 15,2 klux 0,00 min -0,5 C -0,8 C
13.03.2010 11:09 1,9 C 86 % 1022 hPa 0,0 l/m 14,2 km/h (3 Bft) NW22.5 320 15 min 32,2 klux 0,00 min -0,2 C -4,2 C
13.03.2010 11:31 2,0 C 84 % 1022 hPa 0,0 l/m 15,2 km/h (3 Bft) W22.5 280 22 min 70,1 klux 0,00 min -0,4 C -4,7 C
13.03.2010 11:46 2,8 C 82 % 1022 hPa 0,0 l/m 18,9 km/h (3 Bft) W45 265 15 min 68,1 klux 0,00 min 0,0 C -5,5 C
13.03.2010 12:01 3,7 C 80 % 1022 hPa 0,0 l/m 19,2 km/h (3 Bft) W-NW45 290 15 min 82,7 klux 0,00 min 0,6 C -4,5 C
13.03.2010 12:16 3,8 C 76 % 1022 hPa 0,0 l/m 27,3 km/h (4 Bft) NW67.5 320 15 min 35,7 klux 0,00 min -0,0 C -7,3 C
13.03.2010 12:31 4,0 C 78 % 1022 hPa 0,0 l/m 10,5 km/h (2 Bft) W-NW45 290 15 min 39,9 klux 0,00 min 0,5 C 0,6 C
13.03.2010 12:45 4,3 C 77 % 1022 hPa 0,0 l/m 18,2 km/h (3 Bft) W-NW45 285 14 min 83,5 klux 0,00 min 0,6 C -3,3 C
13.03.2010 13:00 4,4 C 76 % 1022 hPa 0,0 l/m 16,8 km/h (3 Bft) W-NW22.5 290 15 min 50,0 klux 0,00 min 0,5 C -2,5 C
13.03.2010 13:16 4,3 C 77 % 1022 hPa 0,0 l/m 17,8 km/h (3 Bft) NW67.5 305 16 min 44,1 klux 0,00 min 0,6 C -3,1 C
13.03.2010 13:31 4,4 C 76 % 1023 hPa 0,0 l/m 22,4 km/h (4 Bft) W22.5 260 15 min 40,7 klux 0,00 min 0,5 C -4,9 C
13.03.2010 13:46 3,5 C 77 % 1023 hPa 0,0 l/m 25,5 km/h (4 Bft) W22.5 265 15 min 27,7 klux 0,00 min -0,1 C -7,1 C
13.03.2010 14:01 2,7 C 80 % 1022 hPa 0,0 l/m 16,2 km/h (3 Bft) W-NW45 295 0 min 14,3 klux 0,00 min -0,4 C -4,4 C
13.03.2010 14:16 3,0 C 80 % 1022 hPa 0,0 l/m 16,0 km/h (3 Bft) W45 275 15 min 28,3 klux 0,00 min -0,1 C -3,9 C
13.03.2010 14:30 3,1 C 79 % 1022 hPa 0,0 l/m 16,6 km/h (3 Bft) W45 270 14 min 27,7 klux 0,00 min -0,2 C -4,1 C
13.03.2010 14:45 3,1 C 80 % 1022 hPa 0,0 l/m 17,5 km/h (3 Bft) W45 270 0 min 20,8 klux 0,00 min -0,0 C -4,5 C
13.03.2010 15:01 3,1 C 79 % 1022 hPa 0,0 l/m 14,7 km/h (3 Bft) W-NW45 285 0 min 18,7 klux 0,00 min -0,2 C -3,1 C
13.03.2010 15:16 3,1 C 80 % 1022 hPa 0,0 l/m 15,0 km/h (3 Bft) W 265 0 min 19,9 klux 0,00 min -0,0 C -3,2 C
13.03.2010 15:31 3,4 C 80 % 1022 hPa 0,0 l/m 14,5 km/h (3 Bft) W45 275 0 min 20,5 klux 0,00 min 0,3 C -2,6 C
13.03.2010 15:46 3,4 C 79 % 1022 hPa 0,0 l/m 18,6 km/h (3 Bft) W45 270 0 min 20,8 klux 0,00 min 0,1 C -4,6 C
13.03.2010 16:01 3,2 C 80 % 1022 hPa 0,0 l/m 17,1 km/h (3 Bft) W-NW45 285 0 min 17,3 klux 0,00 min 0,1 C -4,2 C
13.03.2010 16:15 2,9 C 80 % 1022 hPa 0,0 l/m 21,1 km/h (4 Bft) W-NW45 285 0 min 12,7 klux 0,00 min -0,2 C -6,3 C
13.03.2010 16:30 2,8 C 81 % 1022 hPa 0,0 l/m 14,1 km/h (3 Bft) W22.5 265 0 min 10,4 klux 0,00 min -0,1 C -3,1 C
13.03.2010 16:46 2,6 C 81 % 1022 hPa 0,0 l/m 13,8 km/h (3 Bft) W45 270 0 min 8,18 klux 0,00 min -0,3 C -3,1 C
13.03.2010 17:01 2,5 C 82 % 1022 hPa 0,0 l/m 16,5 km/h (3 Bft) W22.5 265 0 min 7,33 klux 0,00 min -0,3 C -4,8 C
13.03.2010 17:16 2,3 C 83 % 1022 hPa 0,0 l/m 16,3 km/h (3 Bft) W-NW45 285 0 min 5,03 klux 0,00 min -0,3 C -4,9 C
13.03.2010 17:31 2,2 C 83 % 1022 hPa 0,0 l/m 14,9 km/h (3 Bft) W22.5 275 0 min 3,57 klux 0,00 min -0,4 C -4,3 C
13.03.2010 17:46 2,0 C 84 % 1022 hPa 0,0 l/m 12,5 km/h (3 Bft) W22.5 265 0 min 2,37 klux 0,00 min -0,4 C -3,0 C
13.03.2010 18:00 1,9 C 85 % 1022 hPa 0,0 l/m 11,1 km/h (2 Bft) W 260 0 min 2,23 klux 0,00 min -0,3 C -2,2 C
13.03.2010 18:15 1,8 C 85 % 1022 hPa 0,0 l/m 11,5 km/h (2 Bft) W22.5 265 0 min 1,50 klux 0,00 min -0,4 C -2,6 C
13.03.2010 18:31 1,6 C 86 % 1022 hPa 0,0 l/m 14,3 km/h (3 Bft) W 265 0 min 526 lux 0,00 min -0,5 C -4,6 C
13.03.2010 18:46 1,5 C 87 % 1022 hPa 0,0 l/m 16,0 km/h (3 Bft) W22.5 265 0 min 156 lux 0,00 min -0,4 C -5,7 C
13.03.2010 19:01 1,5 C 88 % 1022 hPa 0,0 l/m 16,8 km/h (3 Bft) W22.5 260 0 min 36 lux 0,00 min -0,3 C -6,2 C
13.03.2010 19:16 1,4 C 88 % 1022 hPa 0,0 l/m 18,1 km/h (3 Bft) W22.5 260 0 min 7 lux 0,00 min -0,4 C -6,9 C
13.03.2010 19:31 1,4 C 89 % 1023 hPa 0,0 l/m 15,2 km/h (3 Bft) W22.5 265 0 min 0 lux 0,00 min -0,2 C -5,4 C
13.03.2010 19:45 1,4 C 89 % 1022 hPa 0,0 l/m 20,6 km/h (4 Bft) W22.5 270 0 min 0 lux 0,00 min -0,2 C -8,1 C
13.03.2010 20:00 1,4 C 90 % 1023 hPa 0,0 l/m 27,0 km/h (4 Bft) W22.5 270 0 min 0 lux 0,00 min -0,1 C -10,5 C
13.03.2010 20:16 1,3 C 90 % 1023 hPa 0,0 l/m 14,7 km/h (3 Bft) W22.5 265 0 min 0 lux 0,00 min -0,2 C -5,2 C
13.03.2010 20:31 1,2 C 90 % 1023 hPa 0,0 l/m 19,1 km/h (3 Bft) W45 275 0 min 0 lux 0,00 min -0,3 C -7,7 C
13.03.2010 20:46 1,2 C 90 % 1023 hPa 0,0 l/m 18,8 km/h (3 Bft) W-NW67.5 295 0 min 0 lux 0,00 min -0,3 C -7,5 C
13.03.2010 21:01 1,1 C 90 % 1023 hPa 0,0 l/m 18,2 km/h (3 Bft) W-NW45 285 0 min 0 lux 0,00 min -0,4 C -7,4 C
13.03.2010 21:16 1,0 C 90 % 1023 hPa 0,0 l/m 21,6 km/h (4 Bft) W45 275 0 min 0 lux 0,00 min -0,5 C -9,0 C
13.03.2010 21:30 1,0 C 89 % 1023 hPa 0,0 l/m 21,2 km/h (4 Bft) W45 280 0 min 0 lux 0,00 min -0,6 C -8,9 C
13.03.2010 21:45 0,9 C 89 % 1023 hPa 0,0 l/m 20,0 km/h (4 Bft) W22.5 270 0 min 0 lux 0,00 min -0,7 C -8,5 C
13.03.2010 22:01 0,9 C 88 % 1023 hPa 0,0 l/m 22,2 km/h (4 Bft) W45 270 0 min 0 lux 0,00 min -0,9 C -9,4 C
13.03.2010 22:16 0,8 C 88 % 1023 hPa 0,0 l/m 26,4 km/h (4 Bft) W22.5 265 0 min 0 lux 0,00 min -1,0 C -11,1 C
13.03.2010 22:31 0,7 C 88 % 1023 hPa 0,0 l/m 27,5 km/h (4 Bft) W45 275 0 min 0 lux 0,00 min -1,1 C -11,6 C
13.03.2010 22:46 0,5 C 89 % 1023 hPa 0,0 l/m 27,5 km/h (4 Bft) W45 270 0 min 0 lux 0,00 min -1,1 C -11,9 C
13.03.2010 23:01 0,4 C 89 % 1023 hPa 0,0 l/m 29,5 km/h (5 Bft) W45 265 0 min 0 lux 0,00 min -1,2 C -12,7 C
13.03.2010 23:15 0,3 C 89 % 1023 hPa 0,0 l/m 20,6 km/h (4 Bft) W45 270 0 min 0 lux 0,00 min -1,3 C -9,5 C
13.03.2010 23:30 0,2 C 90 % 1023 hPa 0,0 l/m 20,0 km/h (4 Bft) W45 270 0 min 0 lux 0,00 min -1,2 C -9,4 C
13.03.2010 23:46 0,2 C 90 % 1023 hPa 0,0 l/m 20,0 km/h (4 Bft) W45 270 0 min 0 lux 0,00 min -1,2 C -9,4 C
_ Min-Zeit 03:40 12:16 00:10 - 00:10 - - - - - 03:40 23:01
Minimum _ -2,0 C 76 % 1019 hPa - 0,0 km/h (0 Bft) - - - - - -3,6 C -12,7 C
_ Max-Zeit 13:00 07:10 13:31 00:10 23:01 - - 11:31 12:45 00:10 12:45 12:31
Maximum _ 4,4 C 94 % 1023 hPa 0,0 l/m 29,5 km/h
W (5 Bft)
- - 22 min 83,5 klux 0,00 min 0,6 C 0,6 C
Durchschnitt _ 0,9 C 87 % 1021 hPa #0,0 l/m 14,5 km/h (3 Bft) W - #3:36 h 10,8 klux #0 min. -1,0 C -5,1 C